DW6574 Weather Reports


time (UTC)temp
F
wind
direction
speed
knots
gust
knots
rain 1hr
in
rain 24hr
in
rain mn
in
humidity
%
barometer
mb
20260507040041 59 317 0.0 0.9 0.00 0.11 0.00 91 1005.8
20260507034540 59 260 0.0 1.7 0.00 0.11 0.11 91 1006.0
20260507033044 59 226 0.0 4.3 0.00 0.11 0.11 91 1005.8
20260507031539 58 245 0.9 4.3 0.00 0.11 0.11 91 1005.6
20260507030041 58 203 1.7 5.2 0.00 0.11 0.11 91 1005.3
20260507024539 58 241 0.9 4.3 0.00 0.11 0.11 91 1005.4
20260507023038 58 212 0.0 4.3 0.00 0.11 0.11 91 1005.4
20260507021537 58 228 0.9 4.3 0.00 0.11 0.11 91 1005.2
20260507020037 58 224 1.7 5.2 0.00 0.11 0.11 91 1005.4
20260507014549 58 217 0.0 4.3 0.00 0.11 0.11 91 1005.4
20260507013043 58 186 0.0 7.0 0.00 0.11 0.11 91 1005.4
20260507011539 58 233 0.0 7.0 0.00 0.11 0.11 91 1005.7
20260507010034 58 216 0.0 6.1 0.00 0.11 0.11 91 1005.8
20260507004533 57 211 2.6 6.1 0.00 0.11 0.11 91 1005.8
20260507003034 57 216 0.9 4.3 0.02 0.11 0.11 91 1005.8
20260507001531 57 216 0.9 5.2 0.02 0.11 0.11 91 1005.7
20260507000032 57 241 2.6 7.0 0.03 0.11 0.11 91 1005.5
20260506234529 58 218 0.9 8.7 0.03 0.11 0.11 90 1005.3
20260506233028 58 251 2.6 10.4 0.01 0.09 0.09 90 1005.3
20260506231525 58 131 0.0 5.2 0.01 0.09 0.09 90 1005.3
20260506230024 58 252 1.7 7.0 0.00 0.08 0.08 90 1005.4
20260506224523 58 323 1.7 8.7 0.00 0.08 0.08 90 1005.4
20260506223021 59 291 2.6 11.3 0.01 0.08 0.08 90 1005.5
20260506221518 59 200 3.5 11.3 0.03 0.08 0.08 90 1005.7
20260506220017 59 172 2.6 7.8 0.04 0.08 0.08 90 1005.8
20260506214515 59 209 1.7 7.8 0.03 0.07 0.07 89 1005.8
20260506213014 59 233 0.9 8.7 0.03 0.07 0.07 88 1006.0
20260506211509 60 208 3.5 8.7 0.02 0.05 0.05 88 1006.1
20260506210008 60 205 1.7 9.6 0.01 0.04 0.04 87 1006.2
20260506204506 60 205 1.7 7.8 0.01 0.04 0.04 86 1006.3
20260506203003 60 201 2.6 7.8 0.02 0.04 0.04 85 1006.4
20260506201500 61 225 3.5 10.4 0.02 0.03 0.03 84 1006.4
20260506200148 61 214 5.2 13.0 0.03 0.03 0.03 83 1006.3
20260506194612 62 247 1.7 8.7 0.03 0.03 0.03 83 1006.1
20260506193055 62 210 6.1 13.9 0.02 0.02 0.02 80 1006.4
20260506191554 63 198 5.2 11.3 0.01 0.01 0.01 78 1006.5
20260506190056 65 204 1.7 9.6 0.00 0.00 0.00 74 1006.5
20260506184555 67 226 1.7 12.2 0.00 0.00 0.00 69 1006.4
20260506183053 68 214 1.7 14.8 0.00 0.00 0.00 67 1006.6
20260506181551 70 315 1.7 7.8 0.00 0.00 0.00 62 1006.6
20260506180053 70 238 2.6 17.4 0.00 0.00 0.00 60 1006.7
20260506174548 71 238 0.9 7.0 0.00 0.00 0.00 58 1006.8
20260506173057 72 200 5.2 19.1 0.00 0.00 0.00 56 1006.8
20260506171552 72 218 6.1 19.1 0.00 0.00 0.00 56 1006.9
20260506170045 74 238 6.1 12.2 0.00 0.00 0.00 56 1006.7
20260506164541 71 253 6.1 17.4 0.00 0.00 0.00 58 1007.1
20260506163046 72 244 2.6 13.9 0.00 0.00 0.00 57 1007.3
20260506161549 72 257 3.5 14.8 0.00 0.00 0.00 58 1007.5
20260506160036 72 206 3.5 9.6 0.00 0.00 0.00 59 1007.8
20260506154534 71 181 3.5 8.7 0.00 0.00 0.00 60 1008.1
20260506153032 72 258 2.6 8.7 0.00 0.00 0.00 59 1008.2
20260506151532 72 200 3.5 10.4 0.00 0.00 0.00 59 1008.4
20260506150034 72 240 5.2 13.9 0.00 0.00 0.00 58 1008.5
20260506144528 71 180 3.5 12.2 0.00 0.00 0.00 61 1008.5
20260506143025 70 158 6.1 11.3 0.00 0.00 0.00 62 1008.4
20260506141523 70 184 4.3 11.3 0.00 0.00 0.00 64 1008.3
20260506140021 69 214 4.3 10.4 0.00 0.00 0.00 66 1008.4
20260506134532 68 268 2.6 7.8 0.00 0.00 0.00 70 1008.5
20260506133013 66 162 1.7 7.0 0.00 0.00 0.00 72 1008.9
20260506131511 65 148 3.5 12.2 0.00 0.00 0.00 73 1009.2
20260506130009 65 208 2.6 8.7 0.00 0.00 0.00 74 1009.1
20260506124511 64 192 2.6 11.3 0.00 0.00 0.00 75 1009.2
20260506123005 63 148 1.7 8.7 0.00 0.00 0.00 76 1009.4
20260506121509 63 243 0.9 5.2 0.00 0.00 0.00 78 1009.3
20260506120009 61 216 2.6 7.0 0.00 0.00 0.00 79 1009.3
20260506114504 61 190 1.7 7.0 0.00 0.00 0.00 80 1009.6
20260506113005 60 236 0.0 9.6 0.00 0.00 0.00 80 1009.9
20260506111622 60 219 3.5 8.7 0.00 0.00 0.00 80 1009.7
20260506110100 60 213 2.6 8.7 0.00 0.00 0.00 81 1009.5
20260506104606 59 220 3.5 7.8 0.00 0.00 0.00 81 1009.5
20260506103105 59 215 2.6 8.7 0.00 0.00 0.00 81 1009.7
20260506101557 59 210 0.9 7.0 0.00 0.00 0.00 81 1009.7
20260506100055 59 224 2.6 7.8 0.00 0.00 0.00 80 1009.4
20260506094555 59 215 3.5 6.1 0.00 0.00 0.00 80 1009.2
20260506093057 60 208 1.7 11.3 0.00 0.00 0.00 80 1009.4
20260506091551 60 188 2.6 10.4 0.00 0.00 0.00 79 1009.2
20260506090049 60 204 0.9 8.7 0.00 0.00 0.00 79 1009.2
20260506084547 60 217 2.6 7.0 0.00 0.00 0.00 79 1009.4
20260506083100 60 238 2.6 7.8 0.00 0.00 0.00 79 1009.4
20260506081548 60 259 2.6 10.4 0.00 0.00 0.00 78 1009.4
20260506073038 61 191 2.6 10.4 0.00 0.00 0.00 76 1009.4
20260506071536 61 183 1.7 9.6 0.00 0.00 0.00 76 1009.3
20260506061535 63 229 1.7 11.3 0.00 0.00 0.00 72 1009.0
20260506044518 63 205 2.6 13.0 0.00 0.00 0.00 67 1009.5
20260506043014 64 199 3.5 8.7 0.00 0.00 0.00 67 1009.4
20260506041510 64 222 6.1 16.5 0.00 0.00 0.00 66 1009.4